Probability
0 0 0 0 0 0 0 0 0 0 0 0 0 0 0 0 0 0 0 0 0 0 0 0 0 0 0 0 0 0 0 0 0 0 0 0 0 0 0 0 0 0 0
0 0 0 0 0 0 0 0 0 0 0 0 0 0 0 0 0 0 0 0 0 0 0 0 0 0 0 0 0 0 0 0 0 0 0 0 0 0 0 0 0 0 0
0 0 0 0 0 0 0 0 0 0 0 0 0 0 0 0 0 0 0 0 0 0 0 0 0 0 0 0 0 0 0 0 0 0 0 0 0 0 0 0 0 0 0
0 0 0 0 0 0 0 0 0 0 0 0 0 0 0 0 0 0 0 0 0 0 0 0 0 0 0 0 0 0 0 0 0 0 0 0 0 0 0 0 0 0 0
0 0 0 0 0 0 0 0 0 0 0 0 0 0 0 0 0 0 0 0 0 0 0 0 0 0 0 0 0 0 0 0 0 0 0 0 0 0 0 0 0 0 0
0 0 0 0 0 0 0 0 0 0 0 0 0 0 0 0 0 0 0 0 0 0 0 0 0 0 0 0 0 0 0 0 0 0 0 0 0 0 0 0 0 0 0
0 0 0 0 0 0 0 0 0 0 0 0 0 0 0 0 0 0 0 0 0 0 0 0 0 0 0 0 0 0 0 0 0 0 0 0 0 0 0 0 0 0 0
0 0 0 0 0 0 0 0 0 0 0 0 0 0 0 0 0 0 0 0 0 0 0 0 0 0 0 0 0 0 0 0 0 0 0 0 0 0 0 0 0 0 0
0 0 0 0 0 0 0 0 0 0 0 0 0 0 0 0 0 0 0 0 0 0 0 0 0 0 0 0 0 0 0 0 0 0 0 0 0 0 0 0 0 0 0
0 0 0 0 0 0 0 0 0 0 0 0 0 0 0 0 0 0 0 0 0 0 0 0 0 0 0 0 0 0 0 0 0 0 0 0 0 0 0 0 0 0 0
0 0 0 0 0 0 0 0 0 0 0 0 0 0 0 0 0 0 0 0 0 0 0 0 0 0 0 0 0 0 0 0 0 0 0 0 0 0 0 0 0 0 0
0 0 0 0 0 0 0 0 0 0 0 0 0 0 0 0 0 0 0 0 0 0 0 0 0 0 0 0 0 0 0 0 0 0 0 0 0 0 0 0 0 0 0
0 0 0 0 0 0 0 0 0 0 0 0 0 0 0 0 0 0 0 0 0 0 0 0 0 0 0 0 0 0 0 0 0 0 0 0 0 0 0 0 0 0 0
0 0 0 0 0 0 0 0 0 0 0 0 0 0 0 0 0 0 0 0 0 0 0 0 0 0 0 0 0 0 0 0 0 0 0 0 0 0 0 0 0 0 0
0 0 0 0 0 0 0 0 0 0 0 0 0 0 0 0 0 0 0 0 0 0 0 0 0 0 0 0 0 0 0 0 0 0 0 0 0 0 0 0 0 0 0
0 0 0 0 0 0 0 0 0 0 0 0 0 0 0 0 0 0 0 0 0 0 0 0 0 0 0 0 0 0 0 0 0 0 0 0 0 0 0 0 0 0 0
0 0 0 0 0 0 0 0 0 0 0 0 0 0 0 0 0 0 0 0 0 0 0 0 0 0 0 0 0 0 0 0 0 0 0 0 0 0 0 0 0 0 0
0 0 0 0 0 0 0 0 0 0 0 0 0 0 0 0 0 0 0 0 0 0 0 0 0 0 0 0 0 0 0 0 0 0 0 0 0 0 0 0 0 0 0
0 0 0 0 0 0 0 0 0 0 0 0 0 0 0 0 0 0 0 0 0 0 0 0 0 0 0 0 0 0 0 0 0 0 0 0 0 0 0 0 0 0 0
0 0 0 0 0 0 0 0 0 0 0 0 0 0 0 0 0 0 0 0 0 0 0 0 0 0 0 0 0 0 0 0 0 0 0 0 0 0 0 0 0 0 0
0 0 0 0 0 0 0 0 0 0 0 0 0 0 0 0 0 0 0 0 0 0 0 0 0 0 0 0 0 0 0 0 0 0 0 0 0 0 0 0 0 0 0
0 0 0 0 0 0 0 0 0 0 0 0 0 0 0 0 0 0 0 0 0 0 0 0 0 0 0 0 0 0 0 0 0 0 0 0 0 0 0 0 0 0 0
0 0 0 0 0 0 0 0 0 0 0 0 0 0 0 0 0 0 0 0 0 0 0 0 0 0 0 0 0 0 0 0 0 0 0 0 0 0 0 0 0 0 0
0 0 0 0 0 0 0 0 0 0 0 0 0 0 0 0 0 0 0 0 0 0 0 0 0 0 0 0 0 0 0 0 0 0 0 0 0 0 0 0 0 0 0
0 0 0 0 0 0 0 0 0 0 0 0 0 0 0 0 0 0 0 0 0 0 0 0 0 0 0 0 0 0 0 0 0 0 0 0 0 0 0 0 0 0 0
0 0 0 0 0 0 0 0 0 0 0 0 0 0 0 0 0 0 0 0 0 0 0 0 0 0 0 0 0 0 0 0 0 0 0 0 0 0 0 0 0 0 0
Wind_Speed
3 3 6 10 11 12 12 13 13 14 15 16 16 16 16 16 16 16 16 16 16 17 17 18 18 18 18 18 18 18 18 18 18 18 17 17 17 17 17 16 14 10 17
6 4 8 10 12 12 12 13 13 13 15 15 16 16 16 15 15 15 15 15 15 16 16 17 17 17 17 17 17 17 17 17 16 16 15 14 15 16 16 16 15 11 16
7 5 7 10 12 12 12 12 12 13 14 15 15 15 15 15 15 15 15 14 15 15 16 16 16 16 16 16 16 16 16 15 15 14 12 6 8 15 16 15 15 15 15
7 6 7 10 11 12 12 12 12 13 14 15 15 15 15 14 14 14 14 14 14 15 15 15 15 16 15 15 15 15 15 14 14 12 6 5 5 13 15 14 14 14 14
6 6 8 11 12 12 12 12 12 13 14 14 14 14 14 14 14 14 14 14 14 14 14 14 15 15 14 14 14 14 14 13 13 10 6 5 5 12 14 14 14 14 14
6 6 7 11 12 12 12 12 12 13 13 14 14 14 14 13 13 13 13 13 13 13 13 13 14 14 14 13 13 13 13 12 10 6 6 5 4 10 13 13 13 13 14
7 5 6 10 10 11 12 12 12 12 13 13 13 13 13 13 13 12 12 12 12 12 13 13 13 13 12 12 12 12 11 10 6 5 5 5 5 11 13 13 13 14 14
8 6 5 8 9 10 10 10 11 11 12 12 12 12 13 12 12 12 12 12 11 11 11 12 12 12 11 11 10 10 9 8 6 5 5 5 7 11 12 12 12 13 13
6 6 5 5 6 8 9 9 10 10 11 11 12 11 11 11 11 10 10 11 11 11 11 11 10 10 10 10 9 9 8 8 5 4 4 4 7 10 11 11 11 12 12
5 5 5 5 4 5 6 9 10 10 10 10 10 10 10 9 9 8 7 9 10 10 10 10 9 9 9 9 8 8 7 6 4 4 3 4 8 9 10 10 11 12 12
7 5 5 5 5 5 5 6 8 9 9 10 8 10 8 5 5 5 5 7 8 9 9 8 8 8 8 7 7 7 5 2 3 3 3 5 7 8 9 9 10 11 11
11 9 6 6 6 5 4 4 4 4 5 5 5 5 4 4 3 4 5 6 6 6 6 7 7 7 5 3 4 5 2 2 2 2 2 5 6 7 7 8 9 9 10
10 10 8 7 6 6 4 4 3 3 3 4 5 5 4 3 3 3 2 2 3 3 3 3 4 2 2 2 2 2 2 2 1 2 3 5 5 5 6 6 7 8 9
10 11 9 8 7 6 5 5 4 4 3 3 4 6 5 3 3 3 2 2 2 1 1 1 1 1 2 2 2 2 2 1 0 1 2 5 4 3 4 5 6 7 8
11 12 11 10 9 7 6 5 5 5 5 5 4 5 6 4 4 4 3 2 2 2 2 2 1 1 1 1 1 2 1 1 0 1 2 4 4 3 3 4 5 6 6
13 12 11 11 10 9 8 7 6 6 5 5 5 6 6 5 5 4 4 3 3 3 3 2 2 2 2 1 1 2 2 1 0 0 1 2 4 4 3 2 3 4 5
11 11 12 12 11 10 9 9 6 6 6 6 6 6 7 6 6 5 4 4 4 3 3 2 2 1 1 1 2 2 1 1 1 1 0 1 1 4 3 2 2 3 4
9 10 11 10 12 12 10 8 6 6 7 6 6 6 8 8 7 6 5 5 4 3 3 3 2 2 2 2 2 1 1 1 2 2 1 1 1 1 2 3 2 2 3
11 11 12 12 13 13 11 8 7 6 7 7 6 6 8 9 8 7 6 5 5 4 4 3 3 3 3 3 2 2 2 2 2 2 2 2 2 2 1 2 3 2 2
10 11 11 12 12 11 9 7 6 7 7 6 7 8 9 9 9 8 6 6 6 4 4 4 4 3 3 3 2 1 2 2 2 3 4 3 3 3 2 2 1 1 1
10 12 13 14 13 11 9 9 9 9 8 8 8 9 10 10 10 9 7 7 7 7 7 6 4 4 3 3 2 1 1 3 4 4 3 3 4 4 3 3 2 1 1
14 14 14 15 14 14 12 9 6 6 6 7 7 9 11 11 11 10 10 8 8 7 7 7 6 4 3 5 4 2 2 3 4 4 4 5 5 4 5 5 4 4 2
14 16 15 17 16 15 12 6 4 4 3 6 8 10 11 12 12 11 12 10 9 9 9 9 9 8 6 5 4 5 4 5 2 2 4 5 6 5 5 5 6 6 5
16 15 16 16 16 14 14 11 13 12 13 12 9 9 9 12 12 13 12 12 11 10 10 10 10 8 7 7 5 5 5 4 3 3 3 4 6 7 7 7 7 7 7
13 13 14 14 15 14 15 16 15 15 13 7 7 9 10 10 12 13 13 12 12 11 11 10 10 11 9 9 7 5 5 4 4 4 5 4 4 7 8 9 7 7 8
10 11 12 13 15 14 17 17 18 18 15 11 11 11 10 9 10 13 13 13 13 12 12 12 11 12 11 11 9 7 6 5 7 7 8 6 6 6 7 8 8 8 8
Wind_Direction
164 178 147 133 125 119 115 112 111 109 108 106 103 101 99 98 97 96 95 96 96 95 94 92 90 87 84 82 80 79 77 75 73 72 72 73 74 73 71 68 63 56 61
149 155 141 132 125 121 117 116 116 114 113 110 107 105 102 101 101 100 99 99 100 99 96 94 93 91 88 86 84 82 79 75 71 68 65 64 69 69 67 64 63 61 60
134 135 131 128 125 123 122 121 121 120 117 114 111 108 106 105 104 103 102 102 103 101 98 96 95 94 92 90 87 84 81 76 70 64 54 37 60 69 67 63 60 58 56
131 127 128 126 128 128 126 124 124 123 120 118 114 112 110 108 108 107 106 106 106 104 100 97 96 95 95 92 89 85 81 75 67 56 37 26 44 67 66 64 60 56 55
122 123 131 129 132 132 130 127 126 126 124 122 120 117 114 112 111 110 110 110 110 108 103 99 98 97 96 94 91 87 82 73 61 47 29 24 32 66 68 65 61 58 56
123 125 136 135 137 137 135 134 132 131 129 126 124 122 119 117 115 114 113 113 113 111 106 102 99 99 99 97 94 89 82 71 55 38 29 19 25 67 69 66 64 62 59
133 131 138 138 140 141 141 139 139 136 133 130 128 125 123 121 119 117 116 116 117 114 110 105 102 100 99 99 96 91 82 71 58 38 24 14 37 66 68 66 65 62 59
140 135 137 141 141 142 142 141 141 139 137 134 132 130 128 126 124 122 121 121 121 119 114 109 105 101 100 101 99 93 79 66 55 36 21 12 41 63 63 66 65 61 60
137 134 132 135 140 143 143 140 139 137 137 136 136 132 129 128 126 124 125 127 127 124 118 112 106 103 103 103 102 94 81 69 53 30 21 10 38 59 64 67 64 64 62
145 143 141 136 135 135 139 141 137 135 134 132 129 126 127 125 121 121 125 130 130 125 119 112 104 99 98 99 101 97 82 63 43 27 12 15 37 56 64 64 66 66 65
169 163 154 146 143 139 137 141 137 135 131 126 124 125 117 110 110 114 129 130 129 127 123 114 102 93 87 88 95 95 79 57 38 20 0 15 41 56 62 67 69 68 66
185 181 172 163 155 149 144 135 132 129 130 126 128 126 118 118 119 118 126 124 119 117 117 110 96 85 82 76 80 85 74 63 41 10 357 18 41 54 62 70 72 70 68
188 187 183 175 166 158 149 149 142 135 135 136 140 137 129 122 120 113 109 104 98 95 82 80 75 76 87 96 95 94 92 71 36 1 355 12 34 55 61 73 77 76 73
190 193 189 180 175 171 162 163 160 156 156 158 160 152 145 144 149 150 148 147 139 125 128 103 93 94 99 109 120 116 108 92 38 356 351 10 25 50 63 81 85 83 80
197 197 193 186 184 178 173 176 177 176 174 172 169 169 165 164 171 172 173 172 175 167 169 170 164 149 140 138 146 141 139 133 89 24 356 15 26 42 73 84 92 89 86
203 201 194 193 189 184 185 187 185 185 180 175 181 182 178 175 176 179 184 188 193 189 186 186 190 179 176 166 177 173 172 168 139 66 15 17 29 34 66 81 99 100 95
203 199 196 196 192 191 193 193 189 189 186 188 190 189 187 185 184 185 189 197 201 191 186 184 192 176 180 181 199 196 180 184 180 170 139 67 31 35 48 77 110 111 105
198 197 198 196 196 198 198 196 194 192 193 196 193 192 195 194 189 187 195 204 196 184 182 185 185 185 198 197 205 213 199 197 200 190 175 155 120 63 42 57 73 115 130
202 198 198 198 198 200 200 198 198 196 201 201 197 197 199 199 195 193 201 203 189 187 191 191 192 185 196 201 207 219 217 211 211 194 191 182 168 148 117 74 64 62 140
204 201 201 202 201 197 196 196 199 205 209 206 204 205 199 200 198 198 202 200 189 192 198 195 196 194 193 185 183 224 235 225 215 208 204 193 185 176 163 149 105 81 115
205 203 204 204 202 194 197 202 206 212 210 210 210 207 204 202 199 201 205 200 196 203 205 195 187 194 202 161 144 268 273 228 220 217 204 197 198 190 181 182 180 178 201
211 210 208 208 202 201 204 202 200 199 206 210 208 209 207 206 202 204 206 204 201 205 205 198 189 188 194 176 165 170 270 282 241 215 202 205 205 192 198 198 194 196 196
214 212 210 209 206 204 200 186 178 180 191 203 211 214 211 208 207 207 207 206 203 204 210 207 200 198 204 199 188 173 193 233 249 235 216 210 204 206 209 202 203 200 200
217 213 212 210 208 203 195 195 197 206 216 218 214 213 208 207 210 210 209 208 207 208 212 210 206 207 202 208 209 217 211 179 188 244 244 221 210 214 213 210 208 206 202
216 211 211 209 209 202 199 203 205 216 223 216 203 208 211 210 211 211 210 211 212 213 215 211 206 208 210 213 205 195 213 221 211 216 244 227 220 222 215 212 210 209 205
217 210 208 206 210 204 202 205 209 216 218 212 209 213 214 215 214 213 211 214 216 216 216 216 213 212 215 217 215 206 195 198 205 210 228 226 225 221 211 209 212 212 206